This demonstration page uses our WeatherBlox Daily Observations layout. Learn more.

Left ArrowRight Arrow

Hourly Observations for November 18, 2016

Temp ( °F °C ) Dew Point ( °F °C ) Humidity (%) Winds ( mph kmh ) Pressure ( in mb ) Visibility ( mi km ) Precip ( " mm )
12:15 am 00:15 Cloudy with Light Rain 34 1 32 undefined 93 93 NW 13 20 29.88 1012 3 5 0.01 0.25
12:35 am 00:35 Cloudy with Drizzle 33 0.7 32 undefined 95 95 NW 13 20 29.91 1013 3 4 0.02 0.51
12:55 am 00:55 Cloudy with Drizzle 33 0.8 32 0.1 95 95 NW 17 28 29.94 1014 3 5 0.02 0.51
1:15 am 01:15 Cloudy with Mist and Fog 33 0.8 32 undefined 94 94 NNW 16 26 29.94 1014 5 8 N/A
1:35 am 01:35 Cloudy with Light Rain 33 0.7 32 -0.1 94 94 NNW 18 30 29.94 1014 5 8 N/A
1:55 am 01:55 Cloudy with Light Snow 33 0.3 31 -0.5 94 94 NNW 16 26 29.94 1014 2 3 0.01 0.25
2:15 am 02:15 Windy with Snow Likely 33 0.3 31 -0.5 94 94 NW 20 31 29.94 1014 3 5 N/A
2:35 am 02:35 Cloudy with Light Wintry Mix 32 0.1 30 -0.9 93 93 NW 20 31 29.97 1015 10 16 N/A
2:55 am 02:55 Cloudy with Light Wintry Mix 32 undefined 30 -1.2 92 92 NW 24 39 29.97 1015 10 16 N/A
3:15 am 03:15 Cloudy with Light Wintry Mix 32 undefined 29 -1.5 90 90 NW 21 33 30.00 1016 7 11 N/A
3:35 am 03:35 Windy with Snow Likely 32 undefined 29 -1.5 90 90 NNW 22 35 30.00 1016 10 16 N/A
3:55 am 03:55 Windy with Snow Likely 32 undefined 29 -1.7 88 88 NNW 24 39 30.03 1017 10 16 N/A
4:15 am 04:15 Windy with Snow Likely 32 -0.2 29 -1.7 90 90 NNW 23 37 30.03 1017 4 6 N/A
4:35 am 04:35 Windy with Snow Likely 32 -0.2 28 -2 88 88 NNW 24 39 30.03 1017 5 8 N/A
4:55 am 04:55 Windy with Snow Likely 32 -0.1 28 -2.3 85 85 NNW 23 37 30.06 1018 7 11 N/A
5:15 am 05:15 Mostly Cloudy 31 -0.3 27 -3 82 82 NNW 23 37 30.06 1018 10 16 N/A
5:35 am 05:35 Partly Cloudy 31 -0.5 26 -3.1 83 83 NW 21 33 30.12 1020 10 16 N/A
5:55 am 05:55 Mostly Cloudy 31 -0.5 27 -3 83 83 NW 26 43 30.12 1020 10 16 N/A
6:15 am 06:15 Mostly Cloudy 31 -0.6 26 -3.2 83 83 NW 21 33 30.15 1021 10 16 N/A
6:35 am 06:35 Mostly Cloudy 31 -0.7 26 -3.5 82 82 NW 25 41 30.15 1021 10 16 N/A
6:55 am 06:55 Cloudy 31 -0.8 26 -3.6 82 82 NW 23 37 30.18 1022 10 16 N/A
7:15 am 07:15 Cloudy 30 -1 25 -3.8 82 82 NW 22 35 30.18 1022 10 16 N/A
7:35 am 07:35 Cloudy 31 -0.8 25 -3.8 80 80 NW 22 35 30.21 1023 10 16 N/A
7:55 am 07:55 Cloudy 31 -0.5 26 -3.6 80 80 NW 22 35 30.21 1023 10 16 N/A
8:10 am 08:10 Cloudy 32 -0.2 26 -3.6 78 78 NNW 23 37 30.24 1024 10 16 N/A
8:35 am 08:35 Cloudy 32 undefined 25 -3.7 76 76 NNW 22 35 30.24 1024 10 16 N/A
8:55 am 08:55 Cloudy 32 undefined 26 -3.5 78 78 NW 24 39 30.24 1024 10 16 N/A
9:15 am 09:15 Cloudy 32 undefined 26 -3.5 78 78 NNW 23 37 30.24 1024 10 16 N/A
9:35 am 09:35 Mostly Cloudy 32 0.1 26 -3.6 76 76 NW 22 35 30.24 1024 10 16 N/A
9:55 am 09:55 Mostly Cloudy 33 0.4 26 -3.3 77 77 NW 25 41 30.27 1025 10 16 N/A
10:15 am 10:15 Mostly Cloudy 33 0.5 26 -3.4 75 75 NW 28 44 30.27 1025 10 16 N/A
10:35 am 10:35 Cloudy 33 0.5 26 -3.1 77 77 NW 28 44 30.30 1026 10 16 N/A
10:55 am 10:55 Cloudy 33 0.8 26 -3.4 74 74 NW 23 37 30.30 1026 10 16 N/A
11:15 am 11:15 Cloudy 33 0.6 26 -3.2 76 76 NW 26 43 30.33 1027 10 16 N/A
11:35 am 11:35 Mostly Cloudy 33 0.8 26 -3.5 73 73 NW 24 39 30.33 1027 10 16 N/A
11:55 am 11:55 Cloudy 34 1.3 27 -3 73 73 NNW 23 37 30.36 1028 10 16 N/A
12:15 pm 12:15 Mostly Cloudy 35 1.6 26 -3.1 71 71 NW 24 39 30.36 1028 10 16 N/A
12:35 pm 12:35 Mostly Cloudy 35 1.8 27 -2.6 73 73 NW 21 33 30.36 1028 10 16 N/A
12:55 pm 12:55 Mostly Cloudy 36 2.1 27 -2.6 71 71 NW 22 35 30.33 1027 10 16 N/A
1:15 pm 13:15 Partly Cloudy 35 1.8 25 -3.7 67 67 NW 22 35 30.39 1029 10 16 N/A
1:35 pm 13:35 Mostly Cloudy 35 1.7 25 -3.7 68 68 NW 20 31 30.39 1029 10 16 N/A
1:55 pm 13:55 Mostly Cloudy 36 2 25 -3.8 66 66 NW 24 39 30.39 1029 10 16 N/A
2:15 pm 14:15 Partly Cloudy 36 2.1 26 -3.6 66 66 NW 20 31 30.39 1029 10 16 N/A
2:35 pm 14:35 Sunny 36 2.2 25 -3.8 65 65 NW 23 37 30.36 1028 10 16 N/A
2:55 pm 14:55 Sunny 36 2.1 24 -4.3 63 63 NW 18 30 30.39 1029 10 16 N/A
3:15 pm 15:15 Sunny 35 1.7 23 -4.9 62 62 NW 20 31 30.42 1030 10 16 N/A
3:35 pm 15:35 Sunny 35 1.7 24 -4.5 64 64 NW 21 33 30.42 1030 10 16 N/A
3:55 pm 15:55 Sunny 35 1.4 23 -5.1 62 62 NW 20 31 30.45 1031 10 16 N/A
4:15 pm 16:15 Sunny 34 1.2 22 -5.6 61 61 NNW 20 31 30.45 1031 10 16 N/A
4:35 pm 16:35 Sunny 34 1 22 -5.6 62 62 NW 14 22 30.48 1032 10 16 N/A
4:55 pm 16:55 Sunny 33 0.5 22 -5.5 64 64 NW 16 26 30.48 1032 10 16 N/A
5:15 pm 17:15 Sunny 32 undefined 22 -5.6 66 66 NW 12 19 30.48 1032 10 16 N/A
5:35 pm 17:35 Clear 31 -0.5 22 -5.3 70 70 NNW 10 17 30.50 1033 10 16 N/A
5:55 pm 17:55 Clear 31 -0.6 20 -6.4 65 65 NNW 12 19 30.53 1034 10 16 N/A
6:15 pm 18:15 Clear 30 -1.2 21 -6.3 69 69 NNW 14 22 30.53 1034 10 16 N/A
6:35 pm 18:35 Clear 29 -1.5 21 -6.3 70 70 NNW 10 17 30.53 1034 10 16 N/A
6:55 pm 18:55 Clear 29 -1.9 20 -6.4 72 72 NNW 10 17 30.53 1034 10 16 N/A
7:15 pm 19:15 Clear 28 -2.2 20 -6.4 73 73 NNW 9 15 30.53 1034 10 16 N/A
7:35 pm 19:35 Clear 28 -2.2 21 -6.2 74 74 NW 12 19 30.53 1034 10 16 N/A
7:55 pm 19:55 Clear 28 -2 21 -6.3 73 73 NW 13 20 30.56 1035 10 16 N/A
8:15 pm 20:15 Clear 28 -2.1 20 -6.5 72 72 NW 10 17 30.56 1035 10 16 N/A
8:35 pm 20:35 Clear 28 -2.5 20 -6.5 74 74 NW 9 15 30.56 1035 10 16 N/A
8:55 pm 20:55 Clear 27 -2.6 20 -6.6 74 74 NW 8 13 30.62 1037 10 16 N/A
9:15 pm 21:15 Clear 27 -3 20 -6.7 76 76 NW 10 17 30.62 1037 10 16 N/A
9:35 pm 21:35 Clear 27 -3 20 -6.7 76 76 NW 10 17 30.62 1037 10 16 N/A
9:55 pm 21:55 Clear 26 -3.3 19 -7 76 76 NW 8 13 30.62 1037 10 16 N/A
10:15 pm 22:15 Clear 25 -4 19 -7.1 79 79 NW 7 11 30.62 1037 10 16 N/A
10:35 pm 22:35 Clear 25 -3.7 19 -7.2 77 77 WNW 7 11 30.62 1037 10 16 N/A
10:55 pm 22:55 Clear 24 -4.5 19 -7.5 80 80 W 6 9 30.62 1037 10 16 N/A
11:15 pm 23:15 Clear 23 -4.8 19 -7.5 82 82 W 7 11 30.62 1037 10 16 N/A
11:35 pm 23:35 Clear 24 -4.2 19 -7.4 79 79 W 9 15 30.62 1037 10 16 N/A
11:55 pm 23:55 Clear 24 -4.3 19 -7.5 79 79 W 9 15 30.62 1037 10 16 N/A

Powered by AerisWeather